This demonstration page uses our WeatherBlox Daily Observations layout. Learn more.

Left ArrowRight Arrow

31.31129, -92.44514

Hourly Observations for August 29, 2016

Temp ( °F °C ) Dew Point ( °F °C ) Humidity (%) Winds ( mph kmh ) Pressure ( in mb ) Visibility ( mi km ) Precip ( " mm )
12:53 am 00:53 Clear 75 23.9 72 22.2 90 90 Calm 29.99 1016 10 16 0.00 0.00
1:53 am 01:53 Clear with Light Rain 75 23.9 73 22.8 94 94 Calm 29.98 1015 10 16 0.00 0.03
2:53 am 02:53 Clear 74 23.3 73 22.8 97 97 Calm 29.97 1015 10 16 0.00 0.03
3:53 am 03:53 Clear 74 23.3 73 22.8 97 97 Calm 29.97 1015 10 16 0.00 0.00
4:53 am 04:53 Clear 74 23.3 73 22.8 97 97 Calm 29.97 1015 10 16 0.00 0.00
5:53 am 05:53 Mostly Clear 73 22.8 73 22.8 100 100 NNW 3 6 29.98 1015 10 16 0.00 0.03
6:53 am 06:53 Mostly Sunny 73 22.8 73 22.8 100 100 E 3 6 29.99 1016 9 14 0.00 0.03
7:53 am 07:53 Sunny 74 23.3 73 22.8 97 97 Calm 30.00 1016 10 16 0.00 0.00
8:53 am 08:53 Sunny 76 24.4 73 22.8 91 91 Calm 30.01 1016 10 16 0.00 0.00
9:53 am 09:53 Sunny 80 26.7 74 23.3 82 82 NE 5 7 30.02 1017 10 16 0.00 0.00
10:53 am 10:53 Sunny 84 28.9 75 23.9 74 74 ENE 7 11 30.02 1017 10 16 0.00 0.00
11:53 am 11:53 Sunny 88 31.1 73 22.8 61 61 E 9 15 30.01 1016 10 16 0.00 0.00
12:53 pm 12:53 Partly Cloudy 90 32.2 74 23.3 59 59 NE 7 11 30.00 1016 10 16 0.00 0.00
1:53 pm 13:53 Mostly Sunny 92 33.3 74 23.3 56 56 ENE 8 13 29.98 1015 10 16 0.00 0.00
2:53 pm 14:53 Mostly Sunny 93 33.9 74 23.3 54 54 NE 6 9 29.94 1014 10 16 0.00 0.00
3:53 pm 15:53 Partly Cloudy 93 33.9 73 22.8 52 52 NE 8 13 29.92 1013 10 16 0.00 0.00
4:18 pm 16:18 Mostly Cloudy with Nearby Thunderstorms 86 30 71 21.7 61 61 SE 30 48 29.97 1015 10 16 0.00 0.00
4:23 pm 16:23 Mostly Cloudy with Thunderstorms 80 26.7 71 21.7 74 74 SE 26 43 30.00 1016 9 14 0.00 0.00
4:30 pm 16:30 Cloudy with Thunderstorms 76 24.4 73 22.8 91 91 E 24 39 30.00 1016 3 4 0.02 0.51
4:32 pm 16:32 Cloudy with Strong Thunderstorms 75 23.9 73 22.8 94 94 ESE 25 41 30.00 1016 2 2 0.06 1.52
4:36 pm 16:36 Cloudy with Strong Thunderstorms 74 23.3 73 22.8 97 97 ESE 20 31 30.00 1016 1 1 0.23 5.84
4:41 pm 16:41 Cloudy with Strong Thunderstorms 73 22.8 72 22.2 96 96 ESE 15 24 30.00 1016 0 0 0.45 11.43
4:43 pm 16:43 Cloudy with Strong Thunderstorms 73 22.8 72 22.2 96 96 SE 9 15 30.00 1016 1 1 0.48 12.19
4:49 pm 16:49 Cloudy with Strong Thunderstorms 73 23 73 23 100 100 VRB 5 7 29.97 1015 1 2 0.52 13.21
4:50 pm 16:50 Cloudy with Strong Thunderstorms 73 22.8 73 22.8 100 100 WSW 3 6 29.98 1015 1 2 0.52 13.21
4:56 pm 16:56 Cloudy with Nearby Thunderstorms 74 23.3 73 22.8 97 97 WSW 3 6 29.97 1015 3 5 0.01 0.25
5:03 pm 17:03 Mostly Cloudy with Nearby Thunderstorms 74 23.3 72 22.2 94 94 Calm 29.97 1015 6 10 0.01 0.25
5:15 pm 17:15 Mostly Cloudy with Light Rain 74 23.3 72 22.2 94 94 Calm 29.97 1015 5 8 0.02 0.51
5:53 pm 17:53 Partly Cloudy with Light Rain 75 23.9 73 22.8 94 94 Calm 29.96 1015 9 14 0.03 0.76
6:53 pm 18:53 Sunny 75 23.9 73 22.8 94 94 NW 3 6 29.96 1014 10 16 0.00 0.03
7:53 pm 19:53 Clear 74 23.3 74 23.3 100 100 NW 3 6 29.96 1015 10 16 0.00 0.00
8:53 pm 20:53 Clear 74 23.3 73 22.8 97 97 NW 3 6 29.98 1015 10 16 0.00 0.00
9:53 pm 21:53 Clear 74 23.3 73 22.8 97 97 Calm 29.98 1015 10 16 0.00 0.00
10:53 pm 22:53 Clear 73 22.8 73 22.8 100 100 NNW 3 6 29.99 1016 10 16 0.00 0.00
11:53 pm 23:53 Clear 73 22.8 73 22.8 100 100 Calm 29.99 1016 10 16 0.00 0.00

Powered by AerisWeather